Weather History for KTMB - December, 2012

Change the Weather History Date:

Thursday, December 27, 2012

  Actual Average (KMIA) Record (KMIA)
Temperature  
Mean Temperature 64 °F 69 °F  
Max Temperature 73 °F 77 °F 86 °F (1938)
Min Temperature 55 °F 61 °F 38 °F (1909)
Degree Days  
Heating Degree Days 1 2  
Month to date heating degree days 26  
Since 1 July heating degree days 29  
Cooling Degree Days 0 6  
Month to date cooling degree days 182  
Year to date cooling degree days 4554  
Growing Degree Days 14 (Base 50)    
Moisture  
Dew Point 52 °F    
Average Humidity 70    
Maximum Humidity 89    
Minimum Humidity 41    
Precipitation  
Precipitation 0.00 in 0.06 in 1.72 in (1958)
Month to date precipitation 1.81  
Year to date precipitation 61.67  
Snow  
Snow 0.00 in - - ()
Month to date snowfall  
Since 1 July snowfall  
Snow Depth -    
Sea Level Pressure  
Sea Level Pressure 30.04 in    
Wind  
Wind Speed 8 mph (NNW)    
Max Wind Speed 13 mph    
Max Gust Speed -    
Visibility 10 miles    
Events      
T = Trace of Precipitation, MM = Missing Value Source: NWS Daily Summary

Daily Weather History Graph

Daily Weather History Graph

Search for Another Location

Airport or City:

Trip Planner

Search our weather history database for the weather conditions in past years. The results will help you decide how hot, cold, wet, or windy it might be!

Date:

Astronomy

Dec. 27, 2012 Rise Set
Actual Time 7:06 AM EST 5:39 PM EST
Civil Twilight 6:41 AM EST 6:04 PM EST
Nautical Twilight 6:12 AM EST 6:33 PM EST
Astronomical Twilight 5:44 AM EST 7:01 PM EST
Moon 5:18 PM EST (12/27) 6:19 AM EST (12/27)
Length of Visible Light 11h 23m
Length of Day
10h 33m
Full, 100% of the Moon is Illuminated
Dec 27
Full
Dec 28
Full
Jan 4
Last Quarter
Jan 11
New
Jan 18
First Quarter

Hourly Weather History & Observations

Time (EST) Temp. Dew Point Humidity Pressure Visibility Wind Dir Wind Speed Gust Speed Precip Events Conditions
12:05 AM 66.2 °F 60.8 °F 83% 30.00 in 10.0 mi NNW 12.7 mph - N/A   Partly Cloudy
12:53 AM 64.0 °F 60.1 °F 87% 30.01 in 10.0 mi NNW 8.1 mph - N/A   Clear
1:53 AM 63.0 °F 57.0 °F 81% 30.00 in 10.0 mi NNW 10.4 mph - N/A   Clear
2:53 AM 61.0 °F 55.9 °F 83% 30.00 in 10.0 mi NNW 8.1 mph - N/A   Clear
3:53 AM 59.0 °F 54.0 °F 83% 30.01 in 10.0 mi NNW 11.5 mph - N/A   Clear
4:53 AM 57.9 °F 53.1 °F 84% 30.01 in 10.0 mi NNW 10.4 mph - N/A   Clear
5:53 AM 57.0 °F 52.0 °F 83% 30.02 in 10.0 mi NNW 10.4 mph - N/A   Clear
6:53 AM 55.0 °F 51.1 °F 86% 30.05 in 10.0 mi NNW 6.9 mph - N/A   Clear
7:53 AM 55.9 °F 51.1 °F 84% 30.07 in 10.0 mi North 5.8 mph - N/A   Clear
8:53 AM 59.0 °F 48.9 °F 69% 30.08 in 10.0 mi North 11.5 mph - N/A   Clear
9:53 AM 62.1 °F 48.9 °F 62% 30.09 in 10.0 mi NNW 6.9 mph - N/A   Clear
10:53 AM 64.9 °F 48.9 °F 56% 30.08 in 10.0 mi NNW 5.8 mph - N/A   Clear
11:53 AM 68.0 °F 48.9 °F 50% 30.06 in 10.0 mi NNW 5.8 mph - N/A   Clear
12:53 PM 71.1 °F 48.0 °F 44% 30.03 in 10.0 mi Variable 3.5 mph - N/A   Clear
1:53 PM 73.0 °F 48.0 °F 41% 30.01 in 10.0 mi NNW 4.6 mph - N/A   Clear
2:53 PM 72.0 °F 51.1 °F 48% 30.00 in 10.0 mi WNW 9.2 mph - N/A   Clear
3:53 PM 72.0 °F 51.1 °F 48% 30.00 in 10.0 mi WNW 9.2 mph - N/A   Clear
4:53 PM 70.0 °F 48.9 °F 47% 30.02 in 10.0 mi NNW 8.1 mph - N/A   Clear
5:53 PM 64.0 °F 48.9 °F 58% 30.04 in 10.0 mi Calm Calm - N/A   Clear
6:53 PM 63.0 °F 52.0 °F 67% 30.04 in 10.0 mi Calm Calm - N/A   Clear
7:53 PM 57.9 °F 52.0 °F 81% 30.05 in 10.0 mi Calm Calm - N/A   Clear
8:53 PM 57.0 °F 51.1 °F 81% 30.06 in 10.0 mi Calm Calm - N/A   Clear
9:53 PM 55.0 °F 52.0 °F 89% 30.07 in 10.0 mi Calm Calm - N/A   Clear
10:53 PM 57.0 °F 52.0 °F 83% 30.07 in 10.0 mi Calm Calm - N/A   Clear
11:53 PM 57.9 °F 50.0 °F 75% 30.06 in 10.0 mi Calm Calm - N/A   Clear